timestamp,surface_pressure_avg,surface_temp_avg,battery_voltage,lat,long
2023-08-02 00:09:00+00:00,386.1746,19.7,12.57,47.84626,-54.09684
2023-08-02 00:19:00+00:00,381.5396,19.77,12.57,47.84626,-54.09684
2023-08-02 00:29:00+00:00,379.0279,19.79,12.57,47.84626,-54.09684
2023-08-02 00:39:00+00:00,374.9479,19.78,12.57,47.84626,-54.09684
2023-08-02 00:49:00+00:00,370.6229,19.79,12.57,47.84626,-54.09684
2023-08-02 00:59:00+00:00,371.00800000000004,19.8,12.57,47.84626,-54.09684
2023-08-02 01:09:00+00:00,366.4446,19.8,12.57,47.84626,-54.09684
2023-08-02 01:19:00+00:00,356.1163,19.85,12.49,47.84626,-54.09684
2023-08-02 01:29:00+00:00,345.7714,19.8,12.49,47.84626,-54.09684
2023-08-02 01:39:00+00:00,345.8113,19.8,12.49,47.84626,-54.09684
2023-08-02 01:49:00+00:00,339.1847,19.8,12.49,47.84626,-54.09684
2023-08-02 01:59:00+00:00,323.1163,19.84,12.49,47.84626,-54.09684
2023-08-02 02:09:00+00:00,315.0847,19.88,12.49,47.84626,-54.09684
2023-08-02 02:19:00+00:00,311.5896,19.88,12.49,47.84626,-54.09684
2023-08-02 02:29:00+00:00,300.5881,19.88,12.49,47.84626,-54.09684
2023-08-02 02:39:00+00:00,286.1331,19.89,12.49,47.84626,-54.09684
2023-08-02 02:49:00+00:00,280.7247,19.9,12.49,47.84626,-54.09684
2023-08-02 02:59:00+00:00,272.7247,19.9,12.49,47.84626,-54.09684
2023-08-02 03:09:00+00:00,257.0397,19.99,12.49,47.84626,-54.09684
2023-08-02 03:19:00+00:00,249.3098,20.0,12.49,47.84626,-54.09684
2023-08-02 03:29:00+00:00,244.0531,20.04,12.49,47.84626,-54.09684
2023-08-02 03:39:00+00:00,232.9364,20.06,12.49,47.84626,-54.09684
2023-08-02 03:49:00+00:00,220.8798,20.06,12.49,47.84626,-54.09684
2023-08-02 03:59:00+00:00,217.8348,20.06,12.49,47.84626,-54.09684
2023-08-02 04:09:00+00:00,213.3498,20.04,12.49,47.84626,-54.09684
2023-08-02 04:19:00+00:00,202.4764,20.02,12.49,47.84626,-54.09684
2023-08-02 04:29:00+00:00,195.2181,20.0,12.49,47.84626,-54.09684
2023-08-02 04:39:00+00:00,193.8282,20.0,12.49,47.84626,-54.09684
2023-08-02 04:49:00+00:00,188.1214,19.98,12.49,47.84626,-54.09684
2023-08-02 04:59:00+00:00,183.4731,19.98,12.49,47.84626,-54.09684
2023-08-02 05:09:00+00:00,181.0965,20.0,12.49,47.84626,-54.09684
2023-08-02 05:19:00+00:00,179.9265,20.0,12.41,47.84626,-54.09684
2023-08-02 05:29:00+00:00,178.0181,20.0,12.41,47.84626,-54.09684
2023-08-02 05:39:00+00:00,171.6898,20.0,12.41,47.84626,-54.09684
2023-08-02 05:49:00+00:00,173.6781,20.0,12.41,47.84626,-54.09684
2023-08-02 05:59:00+00:00,178.8331,20.0,12.41,47.84626,-54.09684
2023-08-02 06:09:00+00:00,176.9982,20.0,12.41,47.84626,-54.09684
2023-08-02 06:19:00+00:00,177.2898,20.0,12.41,47.84626,-54.09684
2023-08-02 06:29:00+00:00,180.2448,19.97,12.41,47.84626,-54.09684
2023-08-02 06:39:00+00:00,181.4148,19.92,12.41,47.84626,-54.09684
2023-08-02 06:49:00+00:00,182.8798,19.9,12.41,47.84626,-54.09684
2023-08-02 06:59:00+00:00,185.4365,19.92,12.41,47.84626,-54.09684
2023-08-02 07:09:00+00:00,187.6115,19.91,12.41,47.84626,-54.09684
2023-08-02 07:19:00+00:00,192.7181,19.94,12.41,47.84626,-54.09684
2023-08-02 07:29:00+00:00,198.5314,19.96,12.41,47.84626,-54.09684
2023-08-02 07:39:00+00:00,200.0547,19.97,12.41,47.84626,-54.09684
2023-08-02 07:49:00+00:00,199.3715,19.98,12.41,47.84626,-54.09684
2023-08-02 07:59:00+00:00,207.1131,19.98,12.41,47.84626,-54.09684
2023-08-02 08:09:00+00:00,215.6115,19.97,12.41,47.84626,-54.09684
2023-08-02 08:19:00+00:00,214.3548,20.0,12.41,47.84626,-54.09684
2023-08-02 08:29:00+00:00,216.2098,20.01,12.41,47.84626,-54.09684
2023-08-02 08:39:00+00:00,226.7264,20.07,12.41,47.84626,-54.09684
2023-08-02 08:49:00+00:00,233.3681,20.0,12.41,47.84626,-54.09684
2023-08-02 08:59:00+00:00,237.4064,19.99,12.41,47.84626,-54.09684
2023-08-02 09:09:00+00:00,247.4131,19.99,12.41,47.84626,-54.09684
2023-08-02 09:19:00+00:00,256.0748,19.9,12.41,47.84626,-54.09684
2023-08-02 09:29:00+00:00,260.9297,19.9,12.41,47.84626,-54.09684
2023-08-02 09:39:00+00:00,263.3665,19.97,12.41,47.84626,-54.09684
2023-08-02 09:49:00+00:00,274.1731,19.99,12.41,47.84626,-54.09684
2023-08-02 09:59:00+00:00,284.0563,19.9,12.41,47.84626,-54.09684
2023-08-02 10:09:00+00:00,287.858,19.97,12.41,47.84626,-54.09684
2023-08-02 10:19:00+00:00,291.993,20.0,12.41,47.84626,-54.09684
2023-08-02 10:29:00+00:00,304.0347,20.0,12.41,47.84626,-54.09684
2023-08-02 10:39:00+00:00,311.83799999999997,20.0,12.41,47.84626,-54.09684
2023-08-02 10:49:00+00:00,317.2047,20.0,12.41,47.84626,-54.09684
2023-08-02 10:59:00+00:00,327.3047,20.0,12.41,47.84626,-54.09684
2023-08-02 11:09:00+00:00,336.3163,20.0,12.41,47.84626,-54.09684
2023-08-02 11:19:00+00:00,332.1063,20.0,12.41,47.84626,-54.09684
2023-08-02 11:29:00+00:00,337.7497,20.0,12.41,47.84626,-54.09684
2023-08-02 11:39:00+00:00,345.588,19.9,12.41,47.84626,-54.09684
2023-08-02 11:49:00+00:00,345.2562,19.9,12.41,47.84626,-54.09684
2023-08-02 11:59:00+00:00,341.298,19.95,12.41,47.84626,-54.09684
2023-08-02 12:09:00+00:00,345.1713,19.9,12.41,47.84626,-54.09684
2023-08-02 12:19:00+00:00,349.1846,19.9,12.41,47.84626,-54.09684
2023-08-02 12:29:00+00:00,344.30800000000005,19.9,12.41,47.84626,-54.09684
2023-08-02 12:39:00+00:00,343.843,19.98,12.41,47.84626,-54.09684
2023-08-02 12:49:00+00:00,346.1579,19.9,12.41,47.84626,-54.09684
2023-08-02 12:59:00+00:00,341.5679,19.9,12.41,47.84626,-54.09684
2023-08-02 13:09:00+00:00,337.6246,19.97,12.41,47.84626,-54.09684
2023-08-02 13:19:00+00:00,337.418,19.99,12.57,47.84626,-54.09684
2023-08-02 13:29:00+00:00,332.7063,19.95,12.57,47.84626,-54.09684
2023-08-02 13:39:00+00:00,323.018,19.97,12.57,47.84626,-54.09684
2023-08-02 13:49:00+00:00,325.9497,19.98,12.57,47.84626,-54.09684
2023-08-02 13:59:00+00:00,325.898,19.9,12.57,47.84626,-54.09684
2023-08-02 14:09:00+00:00,309.6313,19.96,12.57,47.84626,-54.09684
2023-08-02 14:19:00+00:00,298.228,20.0,12.65,47.84626,-54.09684
2023-08-02 14:29:00+00:00,294.1313,19.97,12.65,47.84626,-54.09684
2023-08-02 14:39:00+00:00,284.2947,19.9,12.65,47.84626,-54.09684
2023-08-02 14:49:00+00:00,270.8331,19.99,12.65,47.84626,-54.09684
2023-08-02 14:59:00+00:00,266.328,20.0,12.65,47.84626,-54.09684
2023-08-02 15:09:00+00:00,260.7181,19.97,12.65,47.84626,-54.09684
2023-08-02 15:19:00+00:00,246.7047,19.95,12.73,47.84626,-54.09684
2023-08-02 15:29:00+00:00,231.6564,19.99,12.73,47.84626,-54.09684
2023-08-02 15:39:00+00:00,227.1298,20.0,12.73,47.84626,-54.09684
2023-08-02 15:49:00+00:00,220.8248,19.99,12.73,47.84626,-54.09684
2023-08-02 15:59:00+00:00,207.7365,20.0,12.73,47.84626,-54.09684
2023-08-02 16:09:00+00:00,194.7098,20.03,12.73,47.84626,-54.09684
2023-08-02 16:19:00+00:00,190.2148,20.05,12.65,47.84626,-54.09684
2023-08-02 16:29:00+00:00,184.6682,20.02,12.65,47.84626,-54.09684
2023-08-02 16:39:00+00:00,175.3998,20.06,12.65,47.84626,-54.09684
2023-08-02 16:49:00+00:00,170.4282,20.1,12.65,47.84626,-54.09684
2023-08-02 16:59:00+00:00,166.4248,20.1,12.65,47.84626,-54.09684
2023-08-02 17:09:00+00:00,164.7581,20.1,12.65,47.84626,-54.09684
2023-08-02 17:19:00+00:00,164.0748,20.1,12.57,47.84626,-54.09684
2023-08-02 17:29:00+00:00,159.9948,20.1,12.57,47.84626,-54.09684
2023-08-02 17:39:00+00:00,157.6398,20.1,12.57,47.84626,-54.09684
2023-08-02 17:49:00+00:00,159.6815,20.1,12.57,47.84626,-54.09684
2023-08-02 17:59:00+00:00,163.7548,20.1,12.57,47.84626,-54.09684
2023-08-02 18:09:00+00:00,163.6865,20.1,12.57,47.84626,-54.09684
2023-08-02 18:19:00+00:00,163.1015,20.1,12.65,47.84626,-54.09684
2023-08-02 18:29:00+00:00,166.1781,20.1,12.65,47.84626,-54.09684
2023-08-02 18:39:00+00:00,169.4282,20.1,12.65,47.84626,-54.09684
2023-08-02 18:49:00+00:00,172.9715,20.04,12.65,47.84626,-54.09684
2023-08-02 18:59:00+00:00,176.1048,20.04,12.65,47.84626,-54.09684
2023-08-02 19:09:00+00:00,175.2398,20.07,12.65,47.84626,-54.09684
2023-08-02 19:19:01+00:00,179.9348,20.09,12.65,47.84626,-54.09684
2023-08-02 19:29:01+00:00,187.8598,20.09,12.65,47.84626,-54.09684
2023-08-02 19:39:01+00:00,191.4898,20.09,12.65,47.84626,-54.09684
2023-08-02 19:49:01+00:00,199.7048,20.1,12.65,47.84626,-54.09684
2023-08-02 19:59:01+00:00,207.4981,20.09,12.65,47.84626,-54.09684
2023-08-02 20:09:01+00:00,211.2548,20.1,12.65,47.84626,-54.09684
2023-08-02 20:19:00+00:00,217.3448,20.1,12.57,47.84626,-54.09684
2023-08-02 20:29:00+00:00,224.2964,20.1,12.57,47.84626,-54.09684
2023-08-02 20:39:00+00:00,229.1447,20.1,12.57,47.84626,-54.09684
2023-08-02 20:49:00+00:00,237.1881,20.1,12.57,47.84626,-54.09684
2023-08-02 20:59:00+00:00,245.7598,20.1,12.57,47.84626,-54.09684
2023-08-02 21:09:00+00:00,251.4347,20.1,12.57,47.84626,-54.09684
2023-08-02 21:19:00+00:00,258.8947,20.1,12.57,47.84626,-54.09684
2023-08-02 21:29:00+00:00,272.8197,20.1,12.57,47.84626,-54.09684
2023-08-02 21:39:00+00:00,281.2414,20.1,12.57,47.84626,-54.09684
2023-08-02 21:49:00+00:00,284.3614,20.1,12.57,47.84626,-54.09684
2023-08-02 21:59:00+00:00,295.5081,20.1,12.57,47.84626,-54.09684
2023-08-02 22:09:00+00:00,310.2713,20.0,12.57,47.84626,-54.09684
2023-08-02 22:19:00+00:00,317.4564,19.92,12.41,47.84626,-54.09684
2023-08-02 22:29:00+00:00,319.5397,20.0,12.41,47.84626,-54.09684
2023-08-02 22:39:00+00:00,332.7197,20.0,12.41,47.84626,-54.09684
2023-08-02 22:49:00+00:00,348.3147,20.0,12.41,47.84626,-54.09684
2023-08-02 22:59:00+00:00,350.3729,20.03,12.41,47.84626,-54.09684
2023-08-02 23:09:00+00:00,353.9363,20.09,12.41,47.84626,-54.09684
2023-08-02 23:19:00+00:00,366.673,20.09,12.41,47.84626,-54.09684
2023-08-02 23:29:00+00:00,373.6246,20.07,12.41,47.84626,-54.09684
2023-08-02 23:39:00+00:00,373.0679,20.07,12.41,47.84626,-54.09684
2023-08-02 23:49:00+00:00,378.9796,20.08,12.41,47.84626,-54.09684
2023-08-02 23:59:00+00:00,386.3546,20.08,12.41,47.84626,-54.09684
